User: anonymous   Login
Location: Unspecified
(0.0000°N, 0.0000°E)
Time: 09:57:45
(UTC+00:00)
Language:

FORMOSAT 3C - Orbit

View from above orbital plane
View from above orbital plane
View from above satellite
View from above satellite

Ground track
Ground track

The orbit is defined by the following mean orbital elements,

1 29049U          26104.20050205 +.00000000 +00000-0 +11674-3 0 00006
2 29049  72.0187 174.7807 0035156 316.1650  43.6698 14.31357525    09
Epoch (UTC): 14 April 2026 04:48:43
Eccentricity: 0.0035156
inclination: 72.0187°
perigee height: 762 km
apogee height: 812 km
right ascension of ascending node: 174.7807°
argument of perigee: 316.1650°
revolutions per day: 14.31357525
mean anomaly at epoch: 43.6698°

The dashed part of the orbit path shows where the satellite is in the earth's shadow,  

DLR